Погода в Коммунаре

Погода в Коммунаре : погода сейчас, прогноз погоды и архив. Всё, что Вы хотите узнать о погоде в Коммунаре!

Хотите узнать прогноз погоды в Коммунаре? Тогда Вам сюда: Погода в Коммунаре

Поиск расширенной информации на нашем сайте:

Другие новости

Новости СМИ2

Главная страница сайта

Новости сайта

03.07.2017

Напоминаем, что на нашем специализированном сайте Метеоцентр.Азия вы можете получить высокодетализированные автоматические прогнозы погоды по пунктам России, СНГ и мира в авиационном формате (включающие направление и скорость ветра, видимость, явления погоды, количество и форму облачности, нижнюю и верхнюю границу облачности).


Погода в Коммунаре - сегодня

Время (UTC), дата Ветер
(°,м/с) 
Видим.   Явления Облачность Т
(°С)
Тd
(°С)
f(%) Тe
(°С)
Pmin
(гПа)
dP
(гПа)
Po
(мм)
O2
(г/м3)
Тmin Tmax R s Состояние
почвы
09 16.06.18 090 (В) 20000 м  в посл. час ливневой дождь  6/4 600 м кучево-дожд., верхняя 
[Cb cap|Ci fib]
+18.4 +13.7 74 +29  1009.9  -0.3  687  256           
12 16.06.18 тихо ()   20000 м  {ливн. осадки}  8/6 600 м кучево-дожд., верхняя 
[Cb cap|Ci fib]
+17.2 +10.7 66 +21  1010.3  -0.1  687  258    +19.2  0.6     
15 16.06.18 тихо ()   20000 м  {ливн. осадки}  8/8 600 м кучево-дожд. 
[Cb cap]
+12.8 +11.3 91 +18  1012.6  0.7  687  262           
18 16.06.18 тихо ()   н/о  {ливн. осадки}  3/3 600 м 
[Sc]
+9.6 +9 96 +11  1013.8  687  266           
21 16.06.18 тихо ()   н/о    6/3 600 м верхняя 
[Sc|Ci fib]
+8.8 +8 95 +9  1013.7  -0.3  687  267           
00 17.06.18 тихо ()   20000 м    8/3 600 м верхняя 
[Sc|Ci fib]
+10.6 +9.8 95 +13  1013.1  687  265  +8.6    0.5    влажная 
03 17.06.18 270 (З) 20000 м    6/0 верхняя 
[Cc]
+20.6 +9.8 50 +23  1009.2  -0.4  687  255           
06 17.06.18 160 (Ю) 3{12}  20000 м    8/0 средняя, верхняя 
[Ac cast|Cc]
+22.7 +5.7 33 +23  1008.6  -0.1  687  254           
09 17.06.18 180 (Ю) 20000 м    8/8 600 м кучево-дожд. 
[Cb cap]
+22.9 +8.2 39 +23  1008.2  -0.2  687  254           
12 17.06.18 230 (ЮЗ) 20000 м  в посл. час ливневой дождь  6/6 600 м кучево-дожд. 
[Cb cap]
+20.3 +12.3 60 +27  1009  687  255    +24.4  0.0     
15 17.06.18 тихо ()   20000 м    ясно 
+15 +9.8 71 +18  1011  0.2  687  260           
18 17.06.18 тихо ()   н/о    ясно 
+12.2 +8.8 80 +14  1011.3  -0.6  686  263           
21 17.06.18 тихо ()   н/о    ясно 
+11.3 +9.1 86 +13  1010.8  -0.7  686  264           
00 18.06.18 тихо ()   20000 м    ясно 
+14.9 +10.8 76 +19  1008.7  -0.8  685  260  +10.9        сухая 
03 18.06.18 140 (ЮВ) 20000 м    4/0 верхняя 
[Ci fib]
+21 +10.1 50 +24  1005.6  -1  684  254           
06 18.06.18 140 (ЮВ) 2{10}  20000 м    8/0 средняя, верхняя 
[Ac trans|Ci fib]
+24.6 +12 45 +31  1002.2  -1.9  683  250           
09 18.06.18 090 (В) 20000 м    9/0 средняя, верхняя 
[Ac trans|Ci fib]
+26.6 +12.3 41 +33  1000.5  -1  682  248           
12 18.06.18 090 (В) 20000 м    10/3 600 м кучево-дожд., средняя 
[Cb cap|Ac und]
+24.2 +13.2 50 +32  1001.1  -0.1  682  250    +27.1       
15 18.06.18 тихо ()   20000 м    9/4 600 м кучево-дожд., средняя, верхняя 
[Cb cap|Ac trans|Ci fib]
+19.4 +12.1 63 +26  1002.4  -0.2  682  254           
18 18.06.18 тихо ()   н/о    8/3 600 м кучево-дожд., средняя 
[Cb cap|Ac cast]
+16.8 +11.1 69 +22  1001.8  -1.4  681  256           
21 18.06.18 тихо ()   н/о    9/4 600 м кучево-дожд., средняя, верхняя 
[Cb cap|Ac trans|Ci fib]
+15 +10.2 73 +18  1002.1  -0.3  681  258           
00 19.06.18 тихо ()   20000 м    8/1 600 м средняя, верхняя 
[Sc|Ac trans|Ci fib]
+16.4 +11.8 74 +22  1001.8  0.2  681  256  +15        сухая 
03 19.06.18 180 (Ю) 20000 м    3/0 верхняя 
[Ci fib]
+23.5 +13.4 53 +32  999.3  -0.1  681  250           
06 19.06.18 180 (Ю) 20000 м    4/4 600 м кучево-дожд. 
[Cb cap]
+27.6 +10.7 35 +32  997.5  -0.5  680  247           
09 19.06.18 200 (Ю) 20000 м    4/4 600 м 
[Cu hum]
+28 +7.7 28 +28  997.1  -0.4  680  247           
Время (UTC), дата Ветер
(°,м/с) 
Видим.   Явления Облачность Т
(°С)
Тd
(°С)
f(%) Тe
(°С)
Pmin
(гПа)
dP
(гПа)
Po
(мм)
O2
(г/м3)
Тmin Tmax R s Состояние
почвы

Для получения пояснительной информации подведите курсор к названию столбца.

ПОГОДА в Коммунаре - архив

Всё, что Вы хотите узнать о погоде в Коммунаре - удобно и подробно!

Выберите нужную дату (начиная с 1 января 2015* года) и нажмите кнопку "Найти".
Будут отображены архивные сводки погоды по пункту Коммунар, начиная с указанной даты.


Отображать данные в формате CSV (для использования в таблицах Excel)


Внимание! Наш архив погоды предназначен исключительно для личного некоммерческого использования в познавательных целях. Если Вам необходимы официальные справки о состоянии погоды (для производственных, юридических, коммерческих и т.п. целей), обращайтесь в органы Росгидромета.

*Примечание: данная дата относится к архиву по метеостанциям СССР (Россия, СНГ, Балтия).
Архив по метеостанциям Зарубежной Европы и Азии (кроме Китая) хранится 10 дней, по другим регионам земного шара (Китай, Африка, Америка, Австралия, Океания) - 1 день.

Коммунар - район местоположения метеостанции


Название, широта, долгота, высота метеостанции:
Коммунар 54.3°ш. 89.3°д. 847 м над ур. моря [Российская Федерация]

Дополнительная информация

В oтличие oт бoльшинства пoгoдных сайтoв мы публикуем пoдрoбную метеoинфoрмацию в детальнoм прoфессиoнальнoм фoрмате.

Характеристики температуры и влажнoсти вoздуха измеряются на высoте 2 м в тени вдали oт зданий и деревьев.
Скoрoсть ветра измеряется на высoте 10 м (на урoвне рoста челoвека скoрoсть ветра ниже в 1.5-2 раза). Если метеoстанция нахoдится в гoрoде или в лесу, тo скoрoсть ветра занижена на 2-4 м/с пo сравнению с oткрытым местoм. Скoрoсть ветра над акватoриями крупных рек и oзёр, а также на вершинах хoлмoв на 2-5 м/с выше, чем в oбычных услoвиях.
Атмoсфернoе давление в разных тoчках местнoсти мoжет значительнo oтличаться oт давления на метеoстанции, в зависимoсти oт услoвий рельефа (при пoдъёме на 10 м давление пoнижается примернo на 1 мм рт.ст.).